Flag for Canada Weather past 2 weeks in Victoria, British Columbia, Canada

Now
64 °F

Broken clouds.


Feels Like: 64 °F
Forecast: 54 / 63 °F
Wind: No wind

Location: Victoria Int. Airportb. C.

Current Time: Aug 28, 2014 at 8:27:07 PM

Latest Report: Aug 28, 2014 at 8:00 PM


Visibility: 30 mi

Pressure: 30.00 "Hg

Humidity: 73%

Dew point: 55 °F

Location of VictoriaLocation

Historic Weather in Victoria — Graph

°F

Victoria temperature yesterday

Maximum temperature yesterday: 72 °F (at 12:00 PM)
Minimum temperature yesterday: 55 °F (at 6:00 AM)
Average temperature yesterday: 64 °F

Past Weeks' High & Low Weather Summary

 TemperatureHumidityPressure
High79 °F (Aug 26, 5:00 PM)100% (Aug 13, 9:00 PM)30.15 "Hg (Aug 13, 9:00 PM)
Low50 °F (Aug 21, 6:00 AM)47% (Aug 24, 3:00 PM)29.76 "Hg (Aug 19, 7:00 PM)
Average63 °F77%30.00 "Hg
* Reported Aug 13 7:00 PM — Aug 28 7:00 PM, Victoria, Weather by CustomWeather, © 2014

Note: Actual official high and low records may vary slightly from our data, if they occured in-between our weather recording intervals... More about our weather records

Advertising

Victoria weather history for previous 24 hours

 ConditionsComfort  
Time TempWeatherWind HumidityBarometerVisibility
7:00 PM
Aug 28
66 °FPartly sunny.6 mph68%30.00 "Hg30 mi
6:00 PM66 °FBroken clouds.6 mph68%30.01 "Hg30 mi
5:00 PM66 °FBroken clouds.3 mph68%30.02 "Hg30 mi
4:00 PM64 °FBroken clouds.12 mph73%30.03 "Hg30 mi
3:00 PM66 °FScattered clouds.16 mph73%30.04 "Hg30 mi
2:00 PM66 °FPassing clouds.15 mph68%30.06 "Hg30 mi
1:00 PM66 °FScattered clouds.10 mph73%30.06 "Hg30 mi
12:00 PM66 °FPassing clouds.9 mph68%30.07 "Hg30 mi
11:00 AM66 °FPassing clouds.8 mph68%30.07 "Hg30 mi
10:00 AM66 °FScattered clouds.9 mph73%30.05 "Hg30 mi
9:00 AM66 °FPartly sunny.3 mph73%30.04 "Hg30 mi
8:00 AM68 °FBroken clouds.7 mph69%30.04 "Hg30 mi
7:00 AM63 °FPartly cloudy.3 mph83%30.03 "Hg30 mi
6:00 AM63 °FPassing clouds.6 mph83%30.02 "Hg30 mi
5:00 AM64 °FPassing clouds.8 mph78%30.02 "Hg30 mi
4:00 AM64 °FPassing clouds.9 mph73%30.01 "Hg30 mi
3:00 AM66 °FPassing clouds.10 mph68%30.00 "Hg30 mi
2:00 AM66 °FPassing clouds.9 mph68%29.99 "Hg30 mi
1:00 AM68 °FPassing clouds.7 mph64%29.98 "Hg30 mi
12:00 AM66 °FPassing clouds.7 mph68%29.98 "Hg30 mi
11:00 PM
Aug 27
72 °FPassing clouds.13 mph57%29.98 "Hg30 mi
10:00 PM63 °FPassing clouds.5 mph77%29.98 "Hg30 mi
9:00 PM61 °FPartly sunny.3 mph77%29.98 "Hg30 mi
8:00 PM61 °FPartly sunny.3 mph77%29.97 "Hg30 mi
Weather by CustomWeather, © 2014

See weather overviewHow to use our weather pages